SCP
0 0 0 0 0 0 0 0 0 0 0 0 0 0 0 0 0 0 0 0 0 0 0 0 0 0 0 0 0 0 0 0 0 0 0 0 0 0 0 0 0 0 0
0 0 0 0 0 0 0 0 0 0 0 0 0 0 0 0 0 0 0 0 0 0 0 0 0 0 0 0 0 0 0 0 0 0 0 1 1 1 1 0 0 0 1
0 0 0 0 0 0 0 0 0 0 0 0 0 0 0 0 0 0 0 0 0 0 0 0 0 0 0 0 0 0 0 0 0 0 0 0 1 0 0 0 0 0 0
0 0 0 0 0 0 0 0 0 0 0 0 0 0 0 0 0 0 0 0 0 0 0 0 0 0 0 0 0 0 0 0 0 0 0 0 0 0 0 1 0 0 0
0 0 0 0 0 0 0 0 0 0 0 0 0 0 0 0 0 0 0 0 0 0 0 0 0 0 0 0 0 0 0 0 0 0 0 0 0 0 0 0 0 0 0
0 0 0 0 0 0 0 0 0 0 0 0 0 0 0 0 0 0 0 0 0 0 0 0 0 0 0 0 0 0 0 0 0 0 0 0 0 0 0 0 0 0 -0
0 0 0 0 0 0 0 0 0 0 0 0 0 0 0 0 0 0 0 0 0 0 0 0 0 0 0 0 0 0 0 0 0 0 0 0 0 0 0 0 0 0 0
0 0 0 0 0 0 0 0 0 0 0 0 0 0 0 0 0 0 0 0 0 0 0 0 0 0 0 0 0 0 0 0 0 0 0 0 0 0 0 0 0 0 0
0 0 0 0 0 0 0 0 0 0 0 0 0 0 0 0 0 0 0 0 0 0 0 0 0 0 0 0 0 0 0 0 0 0 0 0 0 0 0 0 0 0 0
0 0 0 0 0 0 0 0 0 0 0 0 0 0 0 0 0 0 0 0 0 0 0 -0 -0 -0 0 -0 -0 -0 -0 0 0 0 0 0 0 0 0 0 0 0 0
0 0 0 0 0 0 0 0 0 0 0 0 0 0 0 0 0 0 0 0 0 0 0 -0 -0 -0 -0 -0 0 0 0 0 0 0 -0 0 0 0 0 0 0 0 0
0 0 0 0 0 0 0 0 0 0 0 0 0 0 0 0 0 0 0 0 0 0 0 0 -0 -0 -0 -0 0 -0 0 0 0 0 0 0 -0 -0 0 0 0 0 0
0 0 0 0 0 0 0 0 0 0 0 0 0 0 0 0 0 0 0 0 0 0 0 0 -0 -0 -0 -0 0 0 0 0 -0 -0 -0 -0 -0 -0 -0 0 0 0 0
0 0 0 0 0 0 0 0 0 0 0 0 0 0 0 0 0 0 0 0 0 0 0 0 0 -0 -0 -0 0 0 0 0 0 -0 -0 -0 -0 -0 -0 -0 0 0 0
0 0 0 0 0 0 0 0 0 0 0 0 0 0 0 0 0 -0 0 -0 0 0 0 0 0 0 -0 -0 0 0 0 0 0 -0 -0 -0 -0 -0 -0 0 0 0 0
0 0 0 0 0 0 0 0 0 0 0 0 0 0 0 0 0 0 0 0 0 0 0 0 0 0 0 0 0 0 0 0 0 -0 -0 -0 -0 -0 -0 0 0 0 0
0 0 0 0 0 0 0 0 0 0 0 0 0 0 0 0 0 0 0 0 0 0 0 0 0 0 0 0 0 0 0 0 0 0 -0 -0 0 0 0 0 0 0 0
0 0 0 0 0 0 0 0 0 0 0 0 0 0 0 0 0 0 0 0 0 0 0 0 0 0 0 0 0 0 0 0 0 0 0 0 0 0 0 0 0 0 0
0 0 0 0 0 0 0 0 0 0 0 0 0 0 0 0 0 0 0 0 0 0 0 0 0 0 0 0 0 0 0 0 0 0 0 0 0 0 0 0 0 0 0
0 0 0 0 0 0 0 0 0 0 0 0 0 0 0 0 0 0 0 0 0 0 0 0 0 0 0 0 0 0 0 0 0 0 0 0 0 0 -0 0 0 0 0
0 0 0 0 0 0 0 0 0 0 0 0 0 0 0 0 0 0 0 0 0 0 0 0 0 0 0 0 0 0 0 0 0 0 0 0 0 0 -0 -0 0 0 0
0 0 0 0 0 0 0 0 0 0 0 0 0 0 0 0 0 0 0 0 0 0 0 0 0 0 0 -0 0 0 0 0 0 0 0 0 -0 -0 -0 -0 -0 -0 0
0 0 0 0 0 0 0 0 0 0 0 0 0 0 0 0 0 0 0 0 0 0 0 0 0 0 0 0 -0 0 0 0 0 0 0 -0 -0 0 -0 -0 -0 -0 -0
0 0 0 0 0 0 0 0 0 0 0 0 0 0 0 0 0 0 0 0 0 0 0 0 0 0 0 0 0 0 0 0 0 0 0 0 -0 -0 -0 -0 -0 -0 -0
0 0 0 0 0 0 0 0 0 0 0 0 0 0 0 0 0 0 0 0 0 0 0 0 0 0 0 0 -0 -0 0 0 0 0 -0 -0 -0 0 0 0 -0 -0 -0
0 0 0 0 0 0 0 0 0 0 0 0 0 0 0 0 0 0 0 0 0 0 0 0 0 0 0 0 -0 -0 -0 -0 -0 -0 -0 -0 -0 -0 0 0 -0 -0 -0
Wind_Speed_500mb
14 8 7 9 11 13 12 14 14 14 12 16 17 16 18 18 17 21 26 22 25 23 25 37 43 41 40 44 44 50 54 52 53 58 67 65 62 61 61 57 62 66 54
20 14 10 11 11 14 15 16 18 16 12 12 14 14 9 4 7 11 14 15 20 24 31 32 35 37 40 43 48 56 60 61 56 50 55 39 62 55 38 45 67 59 73
27 17 13 12 11 14 18 19 20 21 19 16 12 8 3 2 3 10 10 17 14 17 22 27 31 34 37 38 38 42 50 60 56 47 35 22 18 53 51 48 45 48 59
28 21 17 13 8 17 21 22 23 24 25 23 19 16 17 16 23 21 20 12 15 22 27 34 38 39 37 36 38 39 40 45 54 50 31 38 47 30 42 50 60 58 59
30 23 16 10 13 17 22 23 23 25 24 24 25 24 24 26 26 25 20 20 17 24 30 34 37 38 37 36 36 37 38 39 44 46 47 48 50 50 31 50 50 59 65
29 24 22 19 17 18 23 23 24 26 25 24 26 26 27 25 26 30 30 32 32 34 37 40 39 39 41 43 43 41 40 39 38 43 48 47 47 55 53 59 74 75 99
31 27 26 19 14 13 13 21 24 27 27 25 27 25 25 22 28 30 31 34 38 37 39 40 41 41 41 42 42 42 42 45 47 48 49 49 50 52 52 57 73 82 90
40 30 25 21 11 9 8 15 18 24 26 26 22 24 24 21 24 30 37 39 42 44 44 43 42 40 40 39 39 42 47 50 54 55 55 55 55 54 53 54 55 73 78
29 24 18 12 11 10 10 16 14 16 20 23 17 25 28 30 24 31 34 37 41 47 51 56 57 58 49 59 53 57 58 65 68 65 64 61 59 58 59 61 68 72 77
29 24 19 14 14 10 12 15 13 11 15 18 16 25 26 30 24 28 36 39 36 38 38 48 58 63 56 54 46 46 66 77 79 77 74 69 70 72 68 65 66 64 82
34 27 24 19 13 12 10 11 11 12 15 17 16 25 28 30 27 31 35 35 37 39 34 42 53 53 63 51 48 51 72 79 81 84 80 78 76 76 73 76 73 70 65
40 34 24 22 14 8 9 12 8 7 14 14 16 22 21 26 32 37 40 31 38 33 30 39 51 59 63 57 46 61 71 80 84 87 83 82 77 77 74 74 77 78 72
37 30 23 19 14 11 7 6 9 10 12 11 12 19 22 28 34 42 47 39 39 30 28 36 49 63 66 59 51 63 72 79 85 87 80 82 84 83 79 77 80 83 84
26 23 20 16 9 12 7 3 8 11 11 10 12 17 20 24 33 41 45 44 39 28 32 37 53 61 65 65 64 67 75 76 81 85 78 77 77 83 85 84 82 83 89
28 18 13 12 9 6 4 4 7 9 10 11 14 17 18 24 35 44 48 53 41 31 31 41 50 63 65 69 64 71 78 78 79 82 83 75 72 77 85 84 89 89 90
20 16 12 9 6 2 2 6 6 8 9 10 13 16 19 19 29 41 48 57 46 34 36 44 55 59 62 62 65 71 78 78 76 82 87 81 79 80 93 97 101 95 99
21 14 12 9 6 3 4 6 6 8 10 12 12 16 20 23 25 37 44 53 48 40 43 56 64 60 61 59 64 69 73 75 73 76 82 91 89 89 94 110 116 84 71
17 15 12 13 11 7 4 4 5 7 9 13 15 18 24 27 23 34 40 46 49 52 55 65 68 63 57 61 66 70 70 73 73 71 76 84 93 94 85 108 103 69 50
13 15 11 11 6 4 5 4 5 9 10 14 19 24 30 36 22 37 40 40 45 54 59 62 70 69 64 70 71 69 68 73 74 70 71 74 87 92 76 97 85 59 45
14 13 12 11 5 3 7 4 8 15 19 24 24 26 34 34 26 35 35 39 38 49 55 57 68 68 73 74 73 64 65 72 78 74 71 75 79 84 86 81 92 73 45
16 13 11 7 4 7 5 3 11 19 15 18 26 27 36 31 30 36 37 35 38 47 54 59 67 65 71 73 75 64 62 67 78 74 76 77 75 77 80 86 73 77 39
21 17 11 9 6 3 4 5 12 17 19 16 23 24 35 29 30 34 31 39 43 45 50 58 63 61 64 67 74 63 57 62 71 76 70 69 68 65 73 75 80 64 58
16 15 12 9 9 9 5 8 14 17 26 20 17 25 29 31 28 34 25 47 41 41 48 57 59 59 60 65 71 63 57 64 66 77 68 62 59 58 59 68 73 80 73
15 15 13 12 17 21 15 18 23 28 33 32 25 19 22 27 31 32 32 48 36 43 51 50 55 53 56 62 68 63 61 65 64 77 81 68 59 48 51 57 66 69 67
21 21 21 21 21 23 24 32 37 32 34 31 25 29 31 28 32 30 36 49 39 41 41 44 57 56 52 56 57 56 56 62 55 71 84 83 73 61 57 55 56 62 61
17 19 19 23 24 28 36 38 34 38 42 46 41 34 29 28 29 34 43 39 40 39 35 51 54 52 41 54 58 50 49 54 50 68 78 83 72 60 56 57 57 54 56
Wind_Direction_500mb
122 104 78 44 48 61 73 83 94 107 130 141 176 191 217 233 255 276 289 304 291 298 281 266 270 278 282 280 282 279 275 272 278 281 269 266 269 260 282 267 270 256 256
131 107 68 49 44 50 61 70 77 79 84 102 124 139 166 199 266 299 311 301 316 309 293 290 291 300 298 291 284 280 286 285 291 305 310 305 284 285 286 278 274 273 260
136 121 105 60 42 49 51 60 61 65 66 77 93 109 148 57 14 14 355 12 351 322 312 307 308 310 311 308 304 294 294 293 300 304 309 316 293 290 285 282 288 282 279
137 130 112 96 35 41 37 49 55 55 57 56 58 59 52 36 25 13 14 4 353 321 323 325 325 324 322 315 314 311 307 300 302 307 293 271 288 301 306 287 283 284 290
147 143 128 99 48 36 32 45 51 55 54 54 52 53 53 42 28 27 28 20 6 348 352 349 347 345 344 339 332 324 316 311 304 308 307 303 301 299 297 299 280 270 277
140 136 135 117 80 39 29 33 40 48 46 43 45 45 46 35 31 28 31 28 19 17 17 12 7 3 359 356 354 350 342 335 318 306 302 301 302 301 303 299 292 291 279
147 151 141 126 109 90 45 30 32 38 39 41 36 33 36 27 20 19 20 15 14 13 16 17 18 17 13 6 359 354 348 342 336 330 319 308 295 287 291 296 291 292 286
142 126 112 112 102 110 62 66 39 34 34 46 31 19 21 24 23 15 7 6 7 6 3 4 5 5 5 3 7 8 5 359 351 342 333 323 320 308 285 279 294 298 292
126 142 121 119 100 87 77 74 59 51 47 47 25 6 14 25 35 14 10 8 3 2 2 0 0 359 3 1 358 357 357 355 354 348 342 331 326 318 306 294 270 273 290
132 141 149 120 109 105 90 86 64 47 42 41 19 8 11 16 37 6 1 5 7 5 8 356 353 350 357 354 357 356 352 350 349 348 343 339 333 325 317 306 294 279 265
154 155 146 130 125 102 54 76 61 36 31 44 14 2 11 8 8 0 1 1 358 360 13 354 353 355 349 352 352 345 349 350 348 348 342 338 335 327 316 312 303 287 273
154 147 140 138 135 115 60 74 58 37 26 49 12 2 6 356 352 1 0 349 352 358 7 0 347 352 348 349 346 336 346 348 347 346 340 338 333 324 316 308 298 292 282
126 136 140 132 131 116 77 72 28 30 25 32 10 0 11 356 350 353 349 350 351 358 12 9 344 348 350 347 343 338 343 346 346 345 340 339 340 333 324 311 303 291 286
137 120 126 125 128 133 85 74 28 10 16 25 10 8 6 347 345 343 353 360 359 6 9 12 344 347 348 349 342 344 343 342 343 344 342 341 339 336 327 317 306 295 283
129 131 125 113 87 110 106 51 33 6 15 19 17 5 2 352 345 343 354 359 1 4 8 6 350 344 347 348 344 343 343 342 341 344 346 341 340 333 329 317 308 295 283
130 139 138 134 135 88 153 79 21 5 25 10 14 355 352 353 342 337 349 354 4 5 8 5 348 347 346 344 343 342 343 342 340 344 348 344 341 335 335 328 314 300 279
144 138 156 170 167 59 86 75 20 13 9 347 356 348 346 345 348 334 348 2 13 11 10 6 353 351 349 347 345 343 343 343 342 344 347 350 346 340 332 333 322 307 281
153 149 157 164 180 184 133 68 10 6 350 342 351 353 345 346 346 338 346 355 4 8 5 5 358 357 355 352 351 345 344 345 345 343 348 353 348 345 334 342 329 311 289
149 163 163 182 207 197 121 57 1 330 337 357 359 354 348 352 356 345 348 2 355 359 359 360 359 0 360 360 354 347 346 346 346 345 349 350 351 348 343 349 347 323 294
153 156 172 183 226 151 96 49 347 350 13 9 1 352 346 353 350 352 359 347 346 349 347 350 356 358 1 1 356 352 351 347 350 348 349 351 353 353 3 353 3 358 318
162 170 167 197 228 143 106 354 335 359 8 358 348 347 349 351 357 357 359 344 343 341 340 343 350 352 359 0 357 356 353 352 352 351 352 349 348 356 2 9 1 16 4
159 169 181 196 216 88 153 315 334 341 347 343 342 330 348 352 348 347 352 346 339 333 336 338 343 346 352 357 357 357 353 352 353 353 350 346 347 355 3 14 14 17 43
177 170 193 224 257 292 293 300 312 309 326 323 323 328 329 347 341 343 336 341 337 329 331 343 343 338 345 352 357 359 355 350 351 356 351 346 350 357 4 13 22 23 27
208 239 240 259 258 270 273 288 299 304 303 305 314 321 325 328 346 334 326 341 332 331 332 343 345 340 341 351 356 356 355 348 347 354 357 357 359 3 10 13 19 27 27
223 238 242 254 263 262 268 289 291 291 300 300 307 297 304 307 325 335 325 335 331 331 337 339 342 342 338 354 356 347 349 344 343 349 356 2 2 4 7 15 19 24 29
235 232 252 263 273 267 286 288 294 293 297 289 294 309 299 318 318 333 331 328 335 335 325 334 342 335 334 349 352 351 350 348 341 349 357 4 4 4 4 8 12 16 23
Wind_Speed_850mb
14 8 7 9 11 13 12 14 14 14 12 16 17 16 18 18 17 21 26 22 25 23 25 37 43 41 40 44 44 50 54 52 53 58 67 65 62 61 61 57 62 66 54
20 14 10 11 11 14 15 16 18 16 12 12 14 14 9 4 7 11 14 15 20 24 31 32 35 37 40 43 48 56 60 61 56 50 55 39 62 55 38 45 67 59 73
27 17 13 12 11 14 18 19 20 21 19 16 12 8 3 2 3 10 10 17 14 17 22 27 31 34 37 38 38 42 50 60 56 47 35 22 18 53 51 48 45 48 59
28 21 17 13 8 17 21 22 23 24 25 23 19 16 17 16 23 21 20 12 15 22 27 34 38 39 37 36 38 39 40 45 54 50 31 38 47 30 42 50 60 58 59
30 23 16 10 13 17 22 23 23 25 24 24 25 24 24 26 26 25 20 20 17 24 30 34 37 38 37 36 36 37 38 39 44 46 47 48 50 50 31 50 50 59 65
29 24 22 19 17 18 23 23 24 26 25 24 26 26 27 25 26 30 30 32 32 34 37 40 39 39 41 43 43 41 40 39 38 43 48 47 47 55 53 59 74 75 99
31 27 26 19 14 13 13 21 24 27 27 25 27 25 25 22 28 30 31 34 38 37 39 40 41 41 41 42 42 42 42 45 47 48 49 49 50 52 52 57 73 82 90
40 30 25 21 11 9 8 15 18 24 26 26 22 24 24 21 24 30 37 39 42 44 44 43 42 40 40 39 39 42 47 50 54 55 55 55 55 54 53 54 55 73 78
29 24 18 12 11 10 10 16 14 16 20 23 17 25 28 30 24 31 34 37 41 47 51 56 57 58 49 59 53 57 58 65 68 65 64 61 59 58 59 61 68 72 77
29 24 19 14 14 10 12 15 13 11 15 18 16 25 26 30 24 28 36 39 36 38 38 48 58 63 56 54 46 46 66 77 79 77 74 69 70 72 68 65 66 64 82
34 27 24 19 13 12 10 11 11 12 15 17 16 25 28 30 27 31 35 35 37 39 34 42 53 53 63 51 48 51 72 79 81 84 80 78 76 76 73 76 73 70 65
40 34 24 22 14 8 9 12 8 7 14 14 16 22 21 26 32 37 40 31 38 33 30 39 51 59 63 57 46 61 71 80 84 87 83 82 77 77 74 74 77 78 72
37 30 23 19 14 11 7 6 9 10 12 11 12 19 22 28 34 42 47 39 39 30 28 36 49 63 66 59 51 63 72 79 85 87 80 82 84 83 79 77 80 83 84
26 23 20 16 9 12 7 3 8 11 11 10 12 17 20 24 33 41 45 44 39 28 32 37 53 61 65 65 64 67 75 76 81 85 78 77 77 83 85 84 82 83 89
28 18 13 12 9 6 4 4 7 9 10 11 14 17 18 24 35 44 48 53 41 31 31 41 50 63 65 69 64 71 78 78 79 82 83 75 72 77 85 84 89 89 90
20 16 12 9 6 2 2 6 6 8 9 10 13 16 19 19 29 41 48 57 46 34 36 44 55 59 62 62 65 71 78 78 76 82 87 81 79 80 93 97 101 95 99
21 14 12 9 6 3 4 6 6 8 10 12 12 16 20 23 25 37 44 53 48 40 43 56 64 60 61 59 64 69 73 75 73 76 82 91 89 89 94 110 116 84 71
17 15 12 13 11 7 4 4 5 7 9 13 15 18 24 27 23 34 40 46 49 52 55 65 68 63 57 61 66 70 70 73 73 71 76 84 93 94 85 108 103 69 50
13 15 11 11 6 4 5 4 5 9 10 14 19 24 30 36 22 37 40 40 45 54 59 62 70 69 64 70 71 69 68 73 74 70 71 74 87 92 76 97 85 59 45
14 13 12 11 5 3 7 4 8 15 19 24 24 26 34 34 26 35 35 39 38 49 55 57 68 68 73 74 73 64 65 72 78 74 71 75 79 84 86 81 92 73 45
16 13 11 7 4 7 5 3 11 19 15 18 26 27 36 31 30 36 37 35 38 47 54 59 67 65 71 73 75 64 62 67 78 74 76 77 75 77 80 86 73 77 39
21 17 11 9 6 3 4 5 12 17 19 16 23 24 35 29 30 34 31 39 43 45 50 58 63 61 64 67 74 63 57 62 71 76 70 69 68 65 73 75 80 64 58
16 15 12 9 9 9 5 8 14 17 26 20 17 25 29 31 28 34 25 47 41 41 48 57 59 59 60 65 71 63 57 64 66 77 68 62 59 58 59 68 73 80 73
15 15 13 12 17 21 15 18 23 28 33 32 25 19 22 27 31 32 32 48 36 43 51 50 55 53 56 62 68 63 61 65 64 77 81 68 59 48 51 57 66 69 67
21 21 21 21 21 23 24 32 37 32 34 31 25 29 31 28 32 30 36 49 39 41 41 44 57 56 52 56 57 56 56 62 55 71 84 83 73 61 57 55 56 62 61
17 19 19 23 24 28 36 38 34 38 42 46 41 34 29 28 29 34 43 39 40 39 35 51 54 52 41 54 58 50 49 54 50 68 78 83 72 60 56 57 57 54 56
Wind_Direction_850mb
122 104 78 44 48 61 73 83 94 107 130 141 176 191 217 233 255 276 289 304 291 298 281 266 270 278 282 280 282 279 275 272 278 281 269 266 269 260 282 267 270 256 256
131 107 68 49 44 50 61 70 77 79 84 102 124 139 166 199 266 299 311 301 316 309 293 290 291 300 298 291 284 280 286 285 291 305 310 305 284 285 286 278 274 273 260
136 121 105 60 42 49 51 60 61 65 66 77 93 109 148 57 14 14 355 12 351 322 312 307 308 310 311 308 304 294 294 293 300 304 309 316 293 290 285 282 288 282 279
137 130 112 96 35 41 37 49 55 55 57 56 58 59 52 36 25 13 14 4 353 321 323 325 325 324 322 315 314 311 307 300 302 307 293 271 288 301 306 287 283 284 290
147 143 128 99 48 36 32 45 51 55 54 54 52 53 53 42 28 27 28 20 6 348 352 349 347 345 344 339 332 324 316 311 304 308 307 303 301 299 297 299 280 270 277
140 136 135 117 80 39 29 33 40 48 46 43 45 45 46 35 31 28 31 28 19 17 17 12 7 3 359 356 354 350 342 335 318 306 302 301 302 301 303 299 292 291 279
147 151 141 126 109 90 45 30 32 38 39 41 36 33 36 27 20 19 20 15 14 13 16 17 18 17 13 6 359 354 348 342 336 330 319 308 295 287 291 296 291 292 286
142 126 112 112 102 110 62 66 39 34 34 46 31 19 21 24 23 15 7 6 7 6 3 4 5 5 5 3 7 8 5 359 351 342 333 323 320 308 285 279 294 298 292
126 142 121 119 100 87 77 74 59 51 47 47 25 6 14 25 35 14 10 8 3 2 2 0 0 359 3 1 358 357 357 355 354 348 342 331 326 318 306 294 270 273 290
132 141 149 120 109 105 90 86 64 47 42 41 19 8 11 16 37 6 1 5 7 5 8 356 353 350 357 354 357 356 352 350 349 348 343 339 333 325 317 306 294 279 265
154 155 146 130 125 102 54 76 61 36 31 44 14 2 11 8 8 0 1 1 358 360 13 354 353 355 349 352 352 345 349 350 348 348 342 338 335 327 316 312 303 287 273
154 147 140 138 135 115 60 74 58 37 26 49 12 2 6 356 352 1 0 349 352 358 7 0 347 352 348 349 346 336 346 348 347 346 340 338 333 324 316 308 298 292 282
126 136 140 132 131 116 77 72 28 30 25 32 10 0 11 356 350 353 349 350 351 358 12 9 344 348 350 347 343 338 343 346 346 345 340 339 340 333 324 311 303 291 286
137 120 126 125 128 133 85 74 28 10 16 25 10 8 6 347 345 343 353 360 359 6 9 12 344 347 348 349 342 344 343 342 343 344 342 341 339 336 327 317 306 295 283
129 131 125 113 87 110 106 51 33 6 15 19 17 5 2 352 345 343 354 359 1 4 8 6 350 344 347 348 344 343 343 342 341 344 346 341 340 333 329 317 308 295 283
130 139 138 134 135 88 153 79 21 5 25 10 14 355 352 353 342 337 349 354 4 5 8 5 348 347 346 344 343 342 343 342 340 344 348 344 341 335 335 328 314 300 279
144 138 156 170 167 59 86 75 20 13 9 347 356 348 346 345 348 334 348 2 13 11 10 6 353 351 349 347 345 343 343 343 342 344 347 350 346 340 332 333 322 307 281
153 149 157 164 180 184 133 68 10 6 350 342 351 353 345 346 346 338 346 355 4 8 5 5 358 357 355 352 351 345 344 345 345 343 348 353 348 345 334 342 329 311 289
149 163 163 182 207 197 121 57 1 330 337 357 359 354 348 352 356 345 348 2 355 359 359 360 359 0 360 360 354 347 346 346 346 345 349 350 351 348 343 349 347 323 294
153 156 172 183 226 151 96 49 347 350 13 9 1 352 346 353 350 352 359 347 346 349 347 350 356 358 1 1 356 352 351 347 350 348 349 351 353 353 3 353 3 358 318
162 170 167 197 228 143 106 354 335 359 8 358 348 347 349 351 357 357 359 344 343 341 340 343 350 352 359 0 357 356 353 352 352 351 352 349 348 356 2 9 1 16 4
159 169 181 196 216 88 153 315 334 341 347 343 342 330 348 352 348 347 352 346 339 333 336 338 343 346 352 357 357 357 353 352 353 353 350 346 347 355 3 14 14 17 43
177 170 193 224 257 292 293 300 312 309 326 323 323 328 329 347 341 343 336 341 337 329 331 343 343 338 345 352 357 359 355 350 351 356 351 346 350 357 4 13 22 23 27
208 239 240 259 258 270 273 288 299 304 303 305 314 321 325 328 346 334 326 341 332 331 332 343 345 340 341 351 356 356 355 348 347 354 357 357 359 3 10 13 19 27 27
223 238 242 254 263 262 268 289 291 291 300 300 307 297 304 307 325 335 325 335 331 331 337 339 342 342 338 354 356 347 349 344 343 349 356 2 2 4 7 15 19 24 29
235 232 252 263 273 267 286 288 294 293 297 289 294 309 299 318 318 333 331 328 335 335 325 334 342 335 334 349 352 351 350 348 341 349 357 4 4 4 4 8 12 16 23